Year,Month,Day,Hour,Minute,Value (Times are PST for temperature in C)
2016,09,14,00,00,11.10
2016,09,14,00,01,11.10
2016,09,14,00,02,11.10
2016,09,14,00,03,11.00
2016,09,14,00,04,11.00
2016,09,14,00,05,11.00
2016,09,14,00,06,11.00
2016,09,14,00,07,10.90
2016,09,14,00,08,10.90
2016,09,14,00,09,10.90
2016,09,14,00,10,10.90
2016,09,14,00,11,10.90
2016,09,14,00,12,10.90
2016,09,14,00,13,10.90
2016,09,14,00,14,10.90
2016,09,14,00,15,10.90
2016,09,14,00,16,10.80
2016,09,14,00,17,10.80
2016,09,14,00,18,10.80
2016,09,14,00,19,10.80
2016,09,14,00,20,10.80
2016,09,14,00,21,10.80
2016,09,14,00,22,10.80
2016,09,14,00,23,10.80
2016,09,14,00,24,10.80
2016,09,14,00,25,10.80
2016,09,14,00,26,10.80
2016,09,14,00,27,10.90
2016,09,14,00,28,10.90
2016,09,14,00,29,10.90
2016,09,14,00,30,10.90
2016,09,14,00,31,11.00
2016,09,14,00,32,10.90
2016,09,14,00,33,11.00
2016,09,14,00,34,11.00
2016,09,14,00,35,11.00
2016,09,14,00,36,11.00
2016,09,14,00,37,11.10
2016,09,14,00,38,11.10
2016,09,14,00,39,11.10
2016,09,14,00,40,11.10
2016,09,14,00,41,11.00
2016,09,14,00,42,11.00
2016,09,14,00,43,11.00
2016,09,14,00,44,11.00
2016,09,14,00,45,11.00
2016,09,14,00,46,11.00
2016,09,14,00,47,11.00
2016,09,14,00,48,11.00
2016,09,14,00,49,11.00
2016,09,14,00,50,11.10
2016,09,14,00,51,11.10
2016,09,14,00,52,11.10
2016,09,14,00,53,11.20
2016,09,14,00,54,11.20
2016,09,14,00,55,11.20
2016,09,14,00,56,11.30
2016,09,14,00,57,11.30
2016,09,14,00,58,11.30
2016,09,14,00,59,11.30
2016,09,14,01,00,11.30
2016,09,14,01,01,11.30
2016,09,14,01,02,11.30
2016,09,14,01,03,11.30
2016,09,14,01,04,11.30
2016,09,14,01,05,11.20
2016,09,14,01,06,11.20
2016,09,14,01,07,11.20
2016,09,14,01,08,11.20
2016,09,14,01,09,11.20
2016,09,14,01,10,11.20
2016,09,14,01,11,11.20
2016,09,14,01,12,11.20
2016,09,14,01,13,11.20
2016,09,14,01,14,11.10
2016,09,14,01,15,11.10
2016,09,14,01,16,11.10
2016,09,14,01,17,11.10
2016,09,14,01,18,11.10
2016,09,14,01,19,11.10
2016,09,14,01,20,11.10
2016,09,14,01,21,11.10
2016,09,14,01,22,11.10
2016,09,14,01,23,11.10
2016,09,14,01,24,11.10
2016,09,14,01,25,11.00
2016,09,14,01,26,11.00
2016,09,14,01,27,11.00
2016,09,14,01,28,11.00
2016,09,14,01,29,11.00
2016,09,14,01,30,11.00
2016,09,14,01,31,11.00
2016,09,14,01,32,11.00
2016,09,14,01,33,11.00
2016,09,14,01,34,11.00
2016,09,14,01,35,11.00
2016,09,14,01,36,11.00
2016,09,14,01,37,11.00
2016,09,14,01,38,11.00
2016,09,14,01,39,11.00
2016,09,14,01,40,11.10
2016,09,14,01,41,11.10
2016,09,14,01,42,11.10
2016,09,14,01,43,11.10
2016,09,14,01,44,11.10
2016,09,14,01,45,11.20
2016,09,14,01,46,11.20
2016,09,14,01,47,11.20
2016,09,14,01,48,11.20
2016,09,14,01,49,11.30
2016,09,14,01,50,11.30
2016,09,14,01,51,11.30
2016,09,14,01,52,11.30
2016,09,14,01,53,11.30
2016,09,14,01,54,11.30
2016,09,14,01,55,11.30
2016,09,14,01,56,11.40
2016,09,14,01,57,11.40
2016,09,14,01,58,11.40
2016,09,14,01,59,11.40
2016,09,14,02,00,11.40
2016,09,14,02,01,11.40
2016,09,14,02,02,11.40
2016,09,14,02,03,11.40
2016,09,14,02,04,11.40
2016,09,14,02,05,11.40
2016,09,14,02,06,11.40
2016,09,14,02,07,11.50
2016,09,14,02,08,11.40
2016,09,14,02,09,11.50
2016,09,14,02,10,11.40
2016,09,14,02,11,11.40
2016,09,14,02,12,11.40
2016,09,14,02,13,11.40
2016,09,14,02,14,11.40
2016,09,14,02,15,11.40
2016,09,14,02,16,11.40
2016,09,14,02,17,11.40
2016,09,14,02,18,11.40
2016,09,14,02,19,11.40
2016,09,14,02,20,11.40
2016,09,14,02,21,11.40
2016,09,14,02,22,11.30
2016,09,14,02,23,11.30
2016,09,14,02,24,11.30
2016,09,14,02,25,11.30
2016,09,14,02,26,11.30
2016,09,14,02,27,11.30
2016,09,14,02,28,11.20
2016,09,14,02,29,11.20
2016,09,14,02,30,11.20
2016,09,14,02,31,11.20
2016,09,14,02,32,11.20
2016,09,14,02,33,11.10
2016,09,14,02,34,11.10
2016,09,14,02,35,11.10
2016,09,14,02,36,11.10
2016,09,14,02,37,11.10
2016,09,14,02,38,11.00
2016,09,14,02,39,11.00
2016,09,14,02,40,11.00
2016,09,14,02,41,10.90
2016,09,14,02,42,10.90
2016,09,14,02,43,10.90
2016,09,14,02,44,10.90
2016,09,14,02,45,10.90
2016,09,14,02,46,10.80
2016,09,14,02,47,10.80
2016,09,14,02,48,10.80
2016,09,14,02,49,10.80
2016,09,14,02,50,10.80
2016,09,14,02,51,10.70
2016,09,14,02,52,10.70
2016,09,14,02,53,10.70
2016,09,14,02,54,10.70
2016,09,14,02,55,10.70
2016,09,14,02,56,10.60
2016,09,14,02,57,10.60
2016,09,14,02,58,10.60
2016,09,14,02,59,10.60
2016,09,14,03,00,10.50
2016,09,14,03,01,10.50
2016,09,14,03,02,10.50
2016,09,14,03,03,10.40
2016,09,14,03,04,10.40
2016,09,14,03,05,10.40
2016,09,14,03,06,10.40
2016,09,14,03,07,10.40
2016,09,14,03,08,10.40
2016,09,14,03,09,10.40
2016,09,14,03,10,10.30
2016,09,14,03,11,10.30
2016,09,14,03,12,10.30
2016,09,14,03,13,10.30
2016,09,14,03,14,10.30
2016,09,14,03,15,10.30
2016,09,14,03,16,10.30
2016,09,14,03,17,10.30
2016,09,14,03,18,10.30
2016,09,14,03,19,10.20
2016,09,14,03,20,10.20
2016,09,14,03,21,10.20
2016,09,14,03,22,10.20
2016,09,14,03,23,10.20
2016,09,14,03,24,10.20
2016,09,14,03,25,10.20
2016,09,14,03,26,10.20
2016,09,14,03,27,10.30
2016,09,14,03,28,10.30
2016,09,14,03,29,10.30
2016,09,14,03,30,10.30
2016,09,14,03,31,10.30
2016,09,14,03,32,10.30
2016,09,14,03,33,10.30
2016,09,14,03,34,10.30
2016,09,14,03,35,10.30
2016,09,14,03,36,10.30
2016,09,14,03,37,10.30
2016,09,14,03,38,10.40
2016,09,14,03,39,10.40
2016,09,14,03,40,10.40
2016,09,14,03,41,10.40
2016,09,14,03,42,10.40
2016,09,14,03,43,10.30
2016,09,14,03,44,10.30
2016,09,14,03,45,10.30
2016,09,14,03,46,10.30
2016,09,14,03,47,10.30
2016,09,14,03,48,10.30
2016,09,14,03,49,10.30
2016,09,14,03,50,10.30
2016,09,14,03,51,10.30
2016,09,14,03,52,10.20
2016,09,14,03,53,10.20
2016,09,14,03,54,10.20
2016,09,14,03,55,10.20
2016,09,14,03,56,10.20
2016,09,14,03,57,10.20
2016,09,14,03,58,10.20
2016,09,14,03,59,10.20
2016,09,14,04,00,10.20
2016,09,14,04,01,10.10
2016,09,14,04,02,10.10
2016,09,14,04,03,10.10
2016,09,14,04,04,10.10
2016,09,14,04,05,10.10
2016,09,14,04,06,10.10
2016,09,14,04,07,10.10
2016,09,14,04,08,10.10
2016,09,14,04,09,10.00
2016,09,14,04,10,10.00
2016,09,14,04,11,10.00
2016,09,14,04,12,10.00
2016,09,14,04,13,10.00
2016,09,14,04,14,9.90
2016,09,14,04,15,9.90
2016,09,14,04,16,9.90
2016,09,14,04,17,9.90
2016,09,14,04,18,10.00
2016,09,14,04,19,10.00
2016,09,14,04,20,10.00
2016,09,14,04,21,10.00
2016,09,14,04,22,10.00
2016,09,14,04,23,10.00
2016,09,14,04,24,10.00
2016,09,14,04,25,9.90
2016,09,14,04,26,9.90
2016,09,14,04,27,9.90
2016,09,14,04,28,10.00
2016,09,14,04,29,10.00
2016,09,14,04,30,10.00
2016,09,14,04,31,10.10
2016,09,14,04,32,10.10
2016,09,14,04,33,10.10
2016,09,14,04,34,10.20
2016,09,14,04,35,10.20
2016,09,14,04,36,10.20
2016,09,14,04,37,10.20
2016,09,14,04,38,10.20
2016,09,14,04,39,10.20
2016,09,14,04,40,10.20
2016,09,14,04,41,10.20
2016,09,14,04,42,10.20
2016,09,14,04,43,10.20
2016,09,14,04,44,10.20
2016,09,14,04,45,10.20
2016,09,14,04,46,10.20
2016,09,14,04,47,10.20
2016,09,14,04,48,10.20
2016,09,14,04,49,10.20
2016,09,14,04,50,10.20
2016,09,14,04,51,10.20
2016,09,14,04,52,10.10
2016,09,14,04,53,10.10
2016,09,14,04,54,10.10
2016,09,14,04,55,10.10
2016,09,14,04,56,10.10
2016,09,14,04,57,10.00
2016,09,14,04,58,10.00
2016,09,14,04,59,10.00
2016,09,14,05,00,10.00
2016,09,14,05,01,10.00
2016,09,14,05,02,9.90
2016,09,14,05,03,9.90
2016,09,14,05,04,9.90
2016,09,14,05,05,9.90
2016,09,14,05,06,9.90
2016,09,14,05,07,10.00
2016,09,14,05,08,10.00
2016,09,14,05,09,9.90
2016,09,14,05,10,9.90
2016,09,14,05,11,9.90
2016,09,14,05,12,9.90
2016,09,14,05,13,9.90
2016,09,14,05,14,9.90
2016,09,14,05,15,9.90
2016,09,14,05,16,9.90
2016,09,14,05,17,9.90
2016,09,14,05,18,9.90
2016,09,14,05,19,9.90
2016,09,14,05,20,9.90
2016,09,14,05,21,9.90
2016,09,14,05,22,9.90
2016,09,14,05,23,9.90
2016,09,14,05,24,9.90
2016,09,14,05,25,9.80
2016,09,14,05,26,9.80
2016,09,14,05,27,9.80
2016,09,14,05,28,9.80
2016,09,14,05,29,9.80
2016,09,14,05,30,9.80
2016,09,14,05,31,9.80
2016,09,14,05,32,9.80
2016,09,14,05,33,9.80
2016,09,14,05,34,9.80
2016,09,14,05,35,9.80
2016,09,14,05,36,9.80
2016,09,14,05,37,9.80
2016,09,14,05,38,9.80
2016,09,14,05,39,9.80
2016,09,14,05,40,9.80
2016,09,14,05,41,9.80
2016,09,14,05,42,9.80
2016,09,14,05,43,9.80
2016,09,14,05,44,9.80
2016,09,14,05,45,9.80
2016,09,14,05,46,9.80
2016,09,14,05,47,9.80
2016,09,14,05,48,9.80
2016,09,14,05,49,9.80
2016,09,14,05,50,9.80
2016,09,14,05,51,9.80
2016,09,14,05,52,9.80
2016,09,14,05,53,9.80
2016,09,14,05,54,9.80
2016,09,14,05,55,9.80
2016,09,14,05,56,9.70
2016,09,14,05,57,9.70
2016,09,14,05,58,9.70
2016,09,14,05,59,9.70
2016,09,14,06,00,9.70
2016,09,14,06,01,9.70
2016,09,14,06,02,9.70
2016,09,14,06,03,9.70
2016,09,14,06,04,9.70
2016,09,14,06,05,9.60
2016,09,14,06,06,9.60
2016,09,14,06,07,9.60
2016,09,14,06,08,9.60
2016,09,14,06,09,9.60
2016,09,14,06,10,9.60
2016,09,14,06,11,9.60
2016,09,14,06,12,9.60
2016,09,14,06,13,9.60
2016,09,14,06,14,9.60
2016,09,14,06,15,9.60
2016,09,14,06,16,9.60
2016,09,14,06,17,9.60
2016,09,14,06,18,9.60
2016,09,14,06,19,9.60
2016,09,14,06,20,9.60
2016,09,14,06,21,9.60
2016,09,14,06,22,9.60
2016,09,14,06,23,9.60
2016,09,14,06,24,9.60
2016,09,14,06,25,9.60
2016,09,14,06,26,9.60
2016,09,14,06,27,9.50
2016,09,14,06,28,9.60
2016,09,14,06,29,9.50
2016,09,14,06,30,9.50
2016,09,14,06,31,9.50
2016,09,14,06,32,9.50
2016,09,14,06,33,9.40
2016,09,14,06,34,9.40
2016,09,14,06,35,9.40
2016,09,14,06,36,9.40
2016,09,14,06,37,9.40
2016,09,14,06,38,9.40
2016,09,14,06,39,9.50
2016,09,14,06,40,9.50
2016,09,14,06,41,9.50
2016,09,14,06,42,9.50
2016,09,14,06,43,9.60
2016,09,14,06,44,9.60
2016,09,14,06,45,9.60
2016,09,14,06,46,9.60
2016,09,14,06,47,9.60
2016,09,14,06,48,9.60
2016,09,14,06,49,9.60
2016,09,14,06,50,9.70
2016,09,14,06,51,9.70
2016,09,14,06,52,9.60
2016,09,14,06,53,9.60
2016,09,14,06,54,9.60
2016,09,14,06,55,9.60
2016,09,14,06,56,9.60
2016,09,14,06,57,9.60
2016,09,14,06,58,9.60
2016,09,14,06,59,9.50
2016,09,14,07,00,9.50
2016,09,14,07,01,9.50
2016,09,14,07,02,9.50
2016,09,14,07,03,9.40
2016,09,14,07,04,9.40
2016,09,14,07,05,9.40
2016,09,14,07,06,9.40
2016,09,14,07,07,9.40
2016,09,14,07,08,9.40
2016,09,14,07,09,9.40
2016,09,14,07,10,9.50
2016,09,14,07,11,9.50
2016,09,14,07,12,9.60
2016,09,14,07,13,9.60
2016,09,14,07,14,9.70
2016,09,14,07,15,9.80
2016,09,14,07,16,9.80
2016,09,14,07,17,9.90
2016,09,14,07,18,9.90
2016,09,14,07,19,9.90
2016,09,14,07,20,9.90
2016,09,14,07,21,9.90
2016,09,14,07,22,9.90
2016,09,14,07,23,10.00
2016,09,14,07,24,10.00
2016,09,14,07,25,10.00
2016,09,14,07,26,10.00
2016,09,14,07,27,10.10
2016,09,14,07,28,10.10
2016,09,14,07,29,10.20
2016,09,14,07,30,10.20
2016,09,14,07,31,10.30
2016,09,14,07,32,10.30
2016,09,14,07,33,10.40
2016,09,14,07,34,10.40
2016,09,14,07,35,10.50
2016,09,14,07,36,10.60
2016,09,14,07,37,10.70
2016,09,14,07,38,10.80
2016,09,14,07,39,10.90
2016,09,14,07,40,11.10
2016,09,14,07,41,11.20
2016,09,14,07,42,11.30
2016,09,14,07,43,11.40
2016,09,14,07,44,11.50
2016,09,14,07,45,11.60
2016,09,14,07,46,11.70
2016,09,14,07,47,11.80
2016,09,14,07,48,11.90
2016,09,14,07,49,12.00
2016,09,14,07,50,12.00
2016,09,14,07,51,12.10
2016,09,14,07,52,12.20
2016,09,14,07,53,12.30
2016,09,14,07,54,12.40
2016,09,14,07,55,12.50
2016,09,14,07,56,12.60
2016,09,14,07,57,12.70
2016,09,14,07,58,12.80
2016,09,14,07,59,12.90
2016,09,14,08,00,13.00
2016,09,14,08,01,13.10
2016,09,14,08,02,13.20
2016,09,14,08,03,13.20
2016,09,14,08,04,13.20
2016,09,14,08,05,13.30
2016,09,14,08,06,13.40
2016,09,14,08,07,13.50
2016,09,14,08,08,13.60
2016,09,14,08,09,13.80
2016,09,14,08,10,13.80
2016,09,14,08,11,13.90
2016,09,14,08,12,14.00
2016,09,14,08,13,14.10
2016,09,14,08,14,14.20
2016,09,14,08,15,14.20
2016,09,14,08,16,14.30
2016,09,14,08,17,14.20
2016,09,14,08,18,14.20
2016,09,14,08,19,14.10
2016,09,14,08,20,14.00
2016,09,14,08,21,13.90
2016,09,14,08,22,13.90
2016,09,14,08,23,13.80
2016,09,14,08,24,13.80
2016,09,14,08,25,13.80
2016,09,14,08,26,13.80
2016,09,14,08,27,13.90
2016,09,14,08,28,14.00
2016,09,14,08,29,14.10
2016,09,14,08,30,14.20
2016,09,14,08,31,14.30
2016,09,14,08,32,14.50
2016,09,14,08,33,14.60
2016,09,14,08,34,14.70
2016,09,14,08,35,14.90
2016,09,14,08,36,15.10
2016,09,14,08,37,15.20
2016,09,14,08,38,15.30
2016,09,14,08,39,15.40
2016,09,14,08,40,15.50
2016,09,14,08,41,15.60
2016,09,14,08,42,15.60
2016,09,14,08,43,15.60
2016,09,14,08,44,15.70
2016,09,14,08,45,15.70
2016,09,14,08,46,15.80
2016,09,14,08,47,15.90
2016,09,14,08,48,16.00
2016,09,14,08,49,16.10
2016,09,14,08,50,16.20
2016,09,14,08,51,16.30
2016,09,14,08,52,16.40
2016,09,14,08,53,16.50
2016,09,14,08,54,16.50
2016,09,14,08,55,16.60
2016,09,14,08,56,16.70
2016,09,14,08,57,16.70
2016,09,14,08,58,16.80
2016,09,14,08,59,16.80
2016,09,14,09,00,16.90
2016,09,14,09,01,16.90
2016,09,14,09,02,17.00
2016,09,14,09,03,17.00
2016,09,14,09,04,17.10
2016,09,14,09,05,17.10
2016,09,14,09,06,17.10
2016,09,14,09,07,17.10
2016,09,14,09,08,17.20
2016,09,14,09,09,17.20
2016,09,14,09,10,17.20
2016,09,14,09,11,17.20
2016,09,14,09,12,17.20
2016,09,14,09,13,17.20
2016,09,14,09,14,17.20
2016,09,14,09,15,17.20
2016,09,14,09,16,17.30
2016,09,14,09,17,17.30
2016,09,14,09,18,17.30
2016,09,14,09,19,17.30
2016,09,14,09,20,17.30
2016,09,14,09,21,17.30
2016,09,14,09,22,17.40
2016,09,14,09,23,17.40
2016,09,14,09,24,17.40
2016,09,14,09,25,17.40
2016,09,14,09,26,17.30
2016,09,14,09,27,17.30
2016,09,14,09,28,17.20
2016,09,14,09,29,17.20
2016,09,14,09,30,17.20
2016,09,14,09,31,17.20
2016,09,14,09,32,17.20
2016,09,14,09,33,17.20
2016,09,14,09,34,17.20
2016,09,14,09,35,17.20
2016,09,14,09,36,17.30
2016,09,14,09,37,17.30
2016,09,14,09,38,17.30
2016,09,14,09,39,17.30
2016,09,14,09,40,17.40
2016,09,14,09,41,17.40
2016,09,14,09,42,17.40
2016,09,14,09,43,17.40
2016,09,14,09,44,17.50
2016,09,14,09,45,17.50
2016,09,14,09,46,17.50
2016,09,14,09,47,17.60
2016,09,14,09,48,17.60
2016,09,14,09,49,17.60
2016,09,14,09,50,17.60
2016,09,14,09,51,17.60
2016,09,14,09,52,17.70
2016,09,14,09,53,17.70
2016,09,14,09,54,17.70
2016,09,14,09,55,17.80
2016,09,14,09,56,17.80
2016,09,14,09,57,17.80
2016,09,14,09,58,17.80
2016,09,14,09,59,17.80
2016,09,14,10,00,17.80
2016,09,14,10,01,17.80
2016,09,14,10,02,17.80
2016,09,14,10,03,17.80
2016,09,14,10,04,17.80
2016,09,14,10,05,17.80
2016,09,14,10,06,17.80
2016,09,14,10,07,17.70
2016,09,14,10,08,17.70
2016,09,14,10,09,17.70
2016,09,14,10,10,17.60
2016,09,14,10,11,17.60
2016,09,14,10,12,17.60
2016,09,14,10,13,17.60
2016,09,14,10,14,17.60
2016,09,14,10,15,17.70
2016,09,14,10,16,17.60
2016,09,14,10,17,17.60
2016,09,14,10,18,17.60
2016,09,14,10,19,17.60
2016,09,14,10,20,17.50
2016,09,14,10,21,17.50
2016,09,14,10,22,17.40
2016,09,14,10,23,17.40
2016,09,14,10,24,17.20
2016,09,14,10,25,17.00
2016,09,14,10,26,16.80
2016,09,14,10,27,16.70
2016,09,14,10,28,16.50
2016,09,14,10,29,16.40
2016,09,14,10,30,16.20
2016,09,14,10,31,16.10
2016,09,14,10,32,15.90
2016,09,14,10,33,15.70
2016,09,14,10,34,15.60
2016,09,14,10,35,15.40
2016,09,14,10,36,15.30
2016,09,14,10,37,15.20
2016,09,14,10,38,15.20
2016,09,14,10,39,15.10
2016,09,14,10,40,15.10
2016,09,14,10,41,15.10
2016,09,14,10,42,15.10
2016,09,14,10,43,15.10
2016,09,14,10,44,15.10
2016,09,14,10,45,15.10
2016,09,14,10,46,15.10
2016,09,14,10,47,15.00
2016,09,14,10,48,14.90
2016,09,14,10,49,14.80
2016,09,14,10,50,14.60
2016,09,14,10,51,14.50
2016,09,14,10,52,14.40
2016,09,14,10,53,14.40
2016,09,14,10,54,14.30
2016,09,14,10,55,14.30
2016,09,14,10,56,14.30
2016,09,14,10,57,14.30
2016,09,14,10,58,14.30
2016,09,14,10,59,14.30
2016,09,14,11,00,14.30
2016,09,14,11,01,14.30
2016,09,14,11,02,14.30
2016,09,14,11,03,14.30
2016,09,14,11,04,14.30
2016,09,14,11,05,14.30
2016,09,14,11,06,14.30
2016,09,14,11,07,14.30
2016,09,14,11,08,14.30
2016,09,14,11,09,14.30
2016,09,14,11,10,14.40
2016,09,14,11,11,14.50
2016,09,14,11,12,14.50
2016,09,14,11,13,14.60
2016,09,14,11,14,14.60
2016,09,14,11,15,14.70
2016,09,14,11,16,14.70
2016,09,14,11,17,14.60
2016,09,14,11,18,14.60
2016,09,14,11,19,14.40
2016,09,14,11,20,14.30
2016,09,14,11,21,14.10
2016,09,14,11,22,14.00
2016,09,14,11,23,13.90
2016,09,14,11,24,13.80
2016,09,14,11,25,13.70
2016,09,14,11,26,13.70
2016,09,14,11,27,13.60
2016,09,14,11,28,13.60
2016,09,14,11,29,13.60
2016,09,14,11,30,13.60
2016,09,14,11,31,13.50
2016,09,14,11,32,13.50
2016,09,14,11,33,13.40
2016,09,14,11,34,13.30
2016,09,14,11,35,13.30
2016,09,14,11,36,13.20
2016,09,14,11,37,13.20
2016,09,14,11,38,13.20
2016,09,14,11,39,13.20
2016,09,14,11,40,13.30
2016,09,14,11,41,13.30
2016,09,14,11,42,13.40
2016,09,14,11,43,13.50
2016,09,14,11,44,13.50
2016,09,14,11,45,13.50
2016,09,14,11,46,13.50
2016,09,14,11,47,13.50
2016,09,14,11,48,13.50
2016,09,14,11,49,13.60
2016,09,14,11,50,13.60
2016,09,14,11,51,13.60
2016,09,14,11,52,13.60
2016,09,14,11,53,13.70
2016,09,14,11,54,13.70
2016,09,14,11,55,13.70
2016,09,14,11,56,13.70
2016,09,14,11,57,13.70
2016,09,14,11,58,13.70
2016,09,14,11,59,13.70
2016,09,14,12,00,13.70
2016,09,14,12,01,13.70
2016,09,14,12,02,13.70
2016,09,14,12,03,13.70
2016,09,14,12,04,13.70
2016,09,14,12,05,13.80
2016,09,14,12,06,13.80
2016,09,14,12,07,13.90
2016,09,14,12,08,14.00
2016,09,14,12,09,14.10
2016,09,14,12,10,14.10
2016,09,14,12,11,14.20
2016,09,14,12,12,14.30
2016,09,14,12,13,14.40
2016,09,14,12,14,14.40
2016,09,14,12,15,14.50
2016,09,14,12,16,14.50
2016,09,14,12,17,14.40
2016,09,14,12,18,14.40
2016,09,14,12,19,14.40
2016,09,14,12,20,14.40
2016,09,14,12,21,14.30
2016,09,14,12,22,14.30
2016,09,14,12,23,14.30
2016,09,14,12,24,14.30
2016,09,14,12,25,14.20
2016,09,14,12,26,14.10
2016,09,14,12,27,14.00
2016,09,14,12,28,13.90
2016,09,14,12,29,13.80
2016,09,14,12,30,13.70
2016,09,14,12,31,13.70
2016,09,14,12,32,13.70
2016,09,14,12,33,13.70
2016,09,14,12,34,13.70
2016,09,14,12,35,13.80
2016,09,14,12,36,13.80
2016,09,14,12,37,13.80
2016,09,14,12,38,13.80
2016,09,14,12,39,13.80
2016,09,14,12,40,13.90
2016,09,14,12,41,14.00
2016,09,14,12,42,14.10
2016,09,14,12,43,14.20
2016,09,14,12,44,14.40
2016,09,14,12,45,14.50
2016,09,14,12,46,14.60
2016,09,14,12,47,14.70
2016,09,14,12,48,14.80
2016,09,14,12,49,14.90
2016,09,14,12,50,15.00
2016,09,14,12,51,15.00
2016,09,14,12,52,15.10
2016,09,14,12,53,15.10
2016,09,14,12,54,15.20
2016,09,14,12,55,15.20
2016,09,14,12,56,15.20
2016,09,14,12,57,15.20
2016,09,14,12,58,15.30
2016,09,14,12,59,15.30
2016,09,14,13,00,15.30
2016,09,14,13,01,15.40
2016,09,14,13,02,15.40
2016,09,14,13,03,15.50
2016,09,14,13,04,15.50
2016,09,14,13,05,15.60
2016,09,14,13,06,15.70
2016,09,14,13,07,15.70
2016,09,14,13,08,15.80
2016,09,14,13,09,15.70
2016,09,14,13,10,15.70
2016,09,14,13,11,15.50
2016,09,14,13,12,15.30
2016,09,14,13,13,15.20
2016,09,14,13,14,15.00
2016,09,14,13,15,14.80
2016,09,14,13,16,14.70
2016,09,14,13,17,14.50
2016,09,14,13,18,14.40
2016,09,14,13,19,14.30
2016,09,14,13,20,14.20
2016,09,14,13,21,14.10
2016,09,14,13,22,14.00
2016,09,14,13,23,14.00
2016,09,14,13,24,13.90
2016,09,14,13,25,14.00
2016,09,14,13,26,14.00
2016,09,14,13,27,14.10
2016,09,14,13,28,14.10
2016,09,14,13,29,14.10
2016,09,14,13,30,14.10
2016,09,14,13,31,14.20
2016,09,14,13,32,14.20
2016,09,14,13,33,14.20
2016,09,14,13,34,14.30
2016,09,14,13,35,14.30
2016,09,14,13,36,14.30
2016,09,14,13,37,14.40
2016,09,14,13,38,14.50
2016,09,14,13,39,14.60
2016,09,14,13,40,14.70
2016,09,14,13,41,14.70
2016,09,14,13,42,14.80
2016,09,14,13,43,14.90
2016,09,14,13,44,15.10
2016,09,14,13,45,15.20
2016,09,14,13,46,15.40
2016,09,14,13,47,15.50
2016,09,14,13,48,15.70
2016,09,14,13,49,15.80
2016,09,14,13,50,15.90
2016,09,14,13,51,16.00
2016,09,14,13,52,16.10
2016,09,14,13,53,16.20
2016,09,14,13,54,16.30
2016,09,14,13,55,16.40
2016,09,14,13,56,16.50
2016,09,14,13,57,16.60
2016,09,14,13,58,16.70
2016,09,14,13,59,16.80
2016,09,14,14,00,16.90
2016,09,14,14,01,16.90
2016,09,14,14,02,17.00
2016,09,14,14,03,17.10
2016,09,14,14,04,17.20
2016,09,14,14,05,17.30
2016,09,14,14,06,17.40
2016,09,14,14,07,17.40
2016,09,14,14,08,17.50
2016,09,14,14,09,17.60
2016,09,14,14,10,17.60
2016,09,14,14,11,17.70
2016,09,14,14,12,17.70
2016,09,14,14,13,17.80
2016,09,14,14,14,17.80
2016,09,14,14,15,17.80
2016,09,14,14,16,17.90
2016,09,14,14,17,17.90
2016,09,14,14,18,18.00
2016,09,14,14,19,18.00
2016,09,14,14,20,18.10
2016,09,14,14,21,18.10
2016,09,14,14,22,18.10
2016,09,14,14,23,18.10
2016,09,14,14,24,18.00
2016,09,14,14,25,18.00
2016,09,14,14,26,17.90
2016,09,14,14,27,17.90
2016,09,14,14,28,17.80
2016,09,14,14,29,17.80
2016,09,14,14,30,17.70
2016,09,14,14,31,17.70
2016,09,14,14,32,17.60
2016,09,14,14,33,17.60
2016,09,14,14,34,17.50
2016,09,14,14,35,17.50
2016,09,14,14,36,17.40
2016,09,14,14,37,17.40
2016,09,14,14,38,17.40
2016,09,14,14,39,17.40
2016,09,14,14,40,17.50
2016,09,14,14,41,17.50
2016,09,14,14,42,17.50
2016,09,14,14,43,17.50
2016,09,14,14,44,17.50
2016,09,14,14,45,17.60
2016,09,14,14,46,17.60
2016,09,14,14,47,17.60
2016,09,14,14,48,17.60
2016,09,14,14,49,17.70
2016,09,14,14,50,17.70
2016,09,14,14,51,17.70
2016,09,14,14,52,17.80
2016,09,14,14,53,17.80
2016,09,14,14,54,17.80
2016,09,14,14,55,17.70
2016,09,14,14,56,17.60
2016,09,14,14,57,17.50
2016,09,14,14,58,17.40
2016,09,14,14,59,17.40
2016,09,14,15,00,17.40
2016,09,14,15,01,17.40
2016,09,14,15,02,17.30
2016,09,14,15,03,17.20
2016,09,14,15,04,17.10
2016,09,14,15,05,17.00
2016,09,14,15,06,16.90
2016,09,14,15,07,16.80
2016,09,14,15,08,16.70
2016,09,14,15,09,16.50
2016,09,14,15,10,16.30
2016,09,14,15,11,16.10
2016,09,14,15,12,15.90
2016,09,14,15,13,15.80
2016,09,14,15,14,15.70
2016,09,14,15,15,15.60
2016,09,14,15,16,15.60
2016,09,14,15,17,15.60
2016,09,14,15,18,15.70
2016,09,14,15,19,15.80
2016,09,14,15,20,15.80
2016,09,14,15,21,15.80
2016,09,14,15,22,15.90
2016,09,14,15,23,15.90
2016,09,14,15,24,15.80
2016,09,14,15,25,15.70
2016,09,14,15,26,15.60
2016,09,14,15,27,15.50
2016,09,14,15,28,15.40
2016,09,14,15,29,15.40
2016,09,14,15,30,15.30
2016,09,14,15,31,15.30
2016,09,14,15,32,15.30
2016,09,14,15,33,15.30
2016,09,14,15,34,15.30
2016,09,14,15,35,15.40
2016,09,14,15,36,15.50
2016,09,14,15,37,15.60
2016,09,14,15,38,15.70
2016,09,14,15,39,15.90
2016,09,14,15,40,16.00
2016,09,14,15,41,16.10
2016,09,14,15,42,16.20
2016,09,14,15,43,16.30
2016,09,14,15,44,16.30
2016,09,14,15,45,16.20
2016,09,14,15,46,16.00
2016,09,14,15,47,15.90
2016,09,14,15,48,15.80
2016,09,14,15,49,15.70
2016,09,14,15,50,15.60
2016,09,14,15,51,15.60
2016,09,14,15,52,15.60
2016,09,14,15,53,15.70
2016,09,14,15,54,15.60
2016,09,14,15,55,15.60
2016,09,14,15,56,15.50
2016,09,14,15,57,15.40
2016,09,14,15,58,15.30
2016,09,14,15,59,15.30
2016,09,14,16,00,15.30
2016,09,14,16,01,15.30
2016,09,14,16,02,15.50
2016,09,14,16,03,15.70
2016,09,14,16,04,15.90
2016,09,14,16,05,16.20
2016,09,14,16,06,16.50
2016,09,14,16,07,16.70
2016,09,14,16,08,17.00
2016,09,14,16,09,17.20
2016,09,14,16,10,17.30
2016,09,14,16,11,17.50
2016,09,14,16,12,17.70
2016,09,14,16,13,17.80
2016,09,14,16,14,17.90
2016,09,14,16,15,18.00
2016,09,14,16,16,18.00
2016,09,14,16,17,18.10
2016,09,14,16,18,18.20
2016,09,14,16,19,18.30
2016,09,14,16,20,18.30
2016,09,14,16,21,18.40
2016,09,14,16,22,18.40
2016,09,14,16,23,18.50
2016,09,14,16,24,18.50
2016,09,14,16,25,18.60
2016,09,14,16,26,18.70
2016,09,14,16,27,18.70
2016,09,14,16,28,18.80
2016,09,14,16,29,18.80
2016,09,14,16,30,18.80
2016,09,14,16,31,18.90
2016,09,14,16,32,18.90
2016,09,14,16,33,19.00
2016,09,14,16,34,19.00
2016,09,14,16,35,19.00
2016,09,14,16,36,19.00
2016,09,14,16,37,19.00
2016,09,14,16,38,19.00
2016,09,14,16,39,19.00
2016,09,14,16,40,19.00
2016,09,14,16,41,19.00
2016,09,14,16,42,18.90
2016,09,14,16,43,18.90
2016,09,14,16,44,18.90
2016,09,14,16,45,18.90
2016,09,14,16,46,18.90
2016,09,14,16,47,18.90
2016,09,14,16,48,18.90
2016,09,14,16,49,18.90
2016,09,14,16,50,18.90
2016,09,14,16,51,18.90
2016,09,14,16,52,18.90
2016,09,14,16,53,18.90
2016,09,14,16,54,18.80
2016,09,14,16,55,18.80
2016,09,14,16,56,18.80
2016,09,14,16,57,18.80
2016,09,14,16,58,18.80
2016,09,14,16,59,18.80
2016,09,14,17,00,18.80
2016,09,14,17,01,18.80
2016,09,14,17,02,18.80
2016,09,14,17,03,18.80
2016,09,14,17,04,18.80
2016,09,14,17,05,18.80
2016,09,14,17,06,18.80
2016,09,14,17,07,18.80
2016,09,14,17,08,18.70
2016,09,14,17,09,18.70
2016,09,14,17,10,18.70
2016,09,14,17,11,18.70
2016,09,14,17,12,18.70
2016,09,14,17,13,18.70
2016,09,14,17,14,18.70
2016,09,14,17,15,18.70
2016,09,14,17,16,18.70
2016,09,14,17,17,18.70
2016,09,14,17,18,18.70
2016,09,14,17,19,18.70
2016,09,14,17,20,18.70
2016,09,14,17,21,18.70
2016,09,14,17,22,18.70
2016,09,14,17,23,18.70
2016,09,14,17,24,18.60
2016,09,14,17,25,18.60